Location: Banios
(43.0451°N, 0.2335°E)
Time: 13:37:58
(UTC+00:00)

A-11 Canister half - Pass Details

Date: 09 May 2021
Orbit: 1513 x 1686 km, 47.2° (Epoch: 14 June)

Event Time Altitude Azimuth Distance (km) Brightness Sun altitude
Rises 23:12:16 0° 293° (WNW) 4,706 12.0 -28.5°
Reaches altitude 10° 23:15:51 10° 282° (WNW) 3,742 11.3 -28.7°
Enters shadow 23:23:19 28° 230° (SW) 2,652 9.9 -28.9°
Maximum altitude 23:23:23 28° 229° (SW) 2,652 - -28.9°
Drops below altitude 10° 23:31:08 10° 176° (S) 3,839 - -29.1°
Sets 23:34:54 0° 165° (SSE) 4,849 - -29.1°
